Beidou DW 30

operational
NORAD ID: 43245 Int'l Des: 2018-029 Owner: CNSA Country: CN Constellation: BeiDou
MEOCIRCULAR

About Beidou DW 30

Description loading...

Live Position

Loading 3D Globe...

Upcoming Passes

Altitude History

Altitude vs Time

uPlot chart will show altitude changes over time

Two-Line Element Set

1 43245U 18029A 26048.20676635 -.00000026 00000-0 00000+0 0 9991
2 43245 54.3023 304.1475 0001004 351.8530 8.2137 1.86228372 53661
Epoch: Feb 17, 2026 • Age: 38 hours

Current Status

Altitude 21529.1 km
Velocity 3.78 km/s
Sub-Earth Point -14.77°S, 140.09°W
Launch Date Mar 29, 2018
Age 7.8 years
Type navigation

Launch Group

Unknown Vehicle • BeiDou Launch 28 • 2 satellites

Technical Details

Classification Payload
Mass 1014.00 kg
Dry Mass 850.00 kg
Total Mass 1014.00 kg
Length 2.20 m
Diameter 1.70 m
Span 10.00 m
Shape Box + 2 Pan
Manufacturer SECM
Bus Type BD-3M2
Phase Status In Orbit
Owner/State CNSA/CN

Large Constellations

Loading constellations...